Regional Weather Roundup
Issued by NWS Northern Indiana

Home | Current Version | Previous Version | Graphics & Text | Print | Product List | Glossary On
Versions: 1 2 3 4 5 6 7 8 9 10 11 12 13 14 15 16 17 18 19 20 21 22 23 24 25 26 27 28 29 30 31 32 33 34 35 36 37 38 39 40 41 42 43 44 45 46 47 48 49 50
000
ASUS43 KIWX 192200
RWRIWX

KIWX WEATHER ROUNDUP
NATIONAL WEATHER SERVICE NORTHERN INDIANA
500 PM EST FRI DEC 19 2014

NOTE: "FAIR" INDICATES FEW OR NO CLOUDS BELOW 12,000 FEET WITH NO
SIGNIFICANT WEATHER AND/OR OBSTRUCTIONS TO VISIBILITY.

* THESE STATIONS ARE NOT UNDER NWS QUALITY CONTROL. THEY ALSO MAY NOT
  REPORT WEATHER SUCH AS PRECIPITATION OR FOG.

INZ001>027-192300-
NORTHERN INDIANA

CITY           SKY/WX    TMP DP  RH WIND       PRES   REMARKS
GARY*          CLOUDY    34  19  55 W5        30.31R WCI  30
SOUTH BEND     CLOUDY    33  26  75 W8        30.28R WCI  26
ELKHART*       CLOUDY    32  19  59 W5        30.27  WCI  27
GOSHEN         CLOUDY    32  22  66 NW6       30.26R WCI  26
ANGOLA*        MOCLDY    28  21  74 SE6       30.24S WCI  22
FORT WAYNE     MOCLDY    31  24  75 E8        30.27R WCI  23

$$
INZ028>050-192300-
CENTRAL INDIANA

CITY           SKY/WX    TMP DP  RH WIND       PRES   REMARKS
LAFAYETTE      CLOUDY    29  26  89 W3        30.32R
KOKOMO*        CLOUDY    30  25  80 W6        30.30R WCI  24
MUNCIE*        CLOUDY    30  24  78 W6        30.27R WCI  24
INDIANAPOLIS   CLOUDY    29  22  75 W5        30.30R WCI  24

$$
MIZ043>046-050>051-056>058-064>065-071>073-077>080-192300-
SOUTHWEST LOWER MICHIGAN

CITY           SKY/WX    TMP DP  RH WIND       PRES   REMARKS
BATTLE CREEK   CLEAR     30  20  66 CALM      30.25R
BENTON HARBOR  CLOUDY    31  23  72 VRB3      30.28R
COLDWATER*     CLOUDY    30  23  76 CALM      30.25R
HILLSDALE*     CLOUDY    30  24  80 CALM      30.24R
HOLLAND        CLEAR     32  20  61 CALM      30.27R
GRAND RAPIDS   PTCLDY    30  19  63 S3        30.26R
KALAMAZOO      CLEAR     32  21  64 E6        30.25R WCI  26
STURGIS*       CLEAR     28  23  80 E6        30.24R WCI  22
THREE RIVERS*  FAIR      33  19  58 W3        30.25R

$$
OHZ001>008-015>018-024>025-192300-
NORTHWEST OHIO

CITY           SKY/WX    TMP DP  RH WIND       PRES   REMARKS
DEFIANCE       CLOUDY    31  21  66 CALM      30.28R
FINDLAY        CLOUDY    31  22  69 CALM      30.26R
TOLEDO EXPRESS CLOUDY    30  25  81 CALM      30.27R
TOLEDO METCALF CLOUDY    30  24  78 SE3       30.28S
LIMA           CLOUDY    32  23  69 CALM      30.25S

$$
AND FOR LAKE MICHIGAN COASTAL AND OPEN LAKE BUOY OBSERVATIONS

STATION/POSITION TEMP    WIND        PRES    VSBY  WAVE
                 AIR SEA DIR/SP/G                  HT/PER
                 (F)     (DEG/KT/KT) (MB)    (MI)  (FT/S)
CALUMET HARBOR    33     210/  4/  7 1024.5R
SAINT JOSEPH      33     330/  6/  8 1025.4R

$$
&&



USA.gov is the U.S. government's official web portal to all federal, state and local government web resources and services.